Location: Lac Lasalle
(46.0398°N, 74.1576°W)
Time: 10:10:27
(UTC-04:00)

ISS - Pass Details

Date: 26 March 2019
Orbit: 408 x 410 km, 51.6° (Epoch: 25 April)

Event Time Altitude Azimuth Distance (km) Brightness Sun altitude
Rises 22:11:13 0° 289° (WNW) 2,336 1.1 -28.6°
Reaches altitude 10° 22:13:28 10° 300° (WNW) 1,474 -0.1 -28.9°
Enters shadow 22:14:26 16° 311° (NW) 1,146 -0.8 -29.0°
